GLD352 SBEG-SBIH

Flight info

Callsign GLD352
Flight time 1h 12m
Altitude 25000
Route SIGE2A SIGEP DCT 0407S05621W DCT
Aircraft PC12/M-SDFGIRY/S

Departure

Time 2026-04-17 00:03
Airport Eduardo Gomes International Airport (SBEG)

Arrival

Time 2026-04-17 01:15
Airport Itaituba Airport (SBIH)
Time Latitude Longitude Altitude Speed Heading
2026-04-16 23:50 -3.03202 -60.03863 210 ft 0 kts 256°
2026-04-16 23:56 -3.03199 -60.03879 265 ft 6 kts 310°
2026-04-16 23:56 -3.03196 -60.03939 265 ft 13 kts 255°
2026-04-16 23:56 -3.03223 -60.04048 265 ft 19 kts 257°
2026-04-16 23:57 -3.03256 -60.04174 265 ft 18 kts 253°
2026-04-16 23:57 -3.03292 -60.04306 265 ft 20 kts 253°
2026-04-16 23:57 -3.03331 -60.04433 265 ft 18 kts 256°
2026-04-16 23:57 -3.03352 -60.04552 265 ft 18 kts 264°
2026-04-16 23:58 -3.03355 -60.04667 265 ft 17 kts 272°
2026-04-16 23:58 -3.03382 -60.04784 265 ft 15 kts 240°
2026-04-16 23:58 -3.03439 -60.04853 265 ft 15 kts 222°
2026-04-16 23:58 -3.03530 -60.04930 264 ft 19 kts 228°
2026-04-16 23:59 -3.03594 -60.05054 265 ft 21 kts 258°
2026-04-16 23:59 -3.03633 -60.05201 265 ft 22 kts 257°
2026-04-16 23:59 -3.03672 -60.05354 265 ft 23 kts 258°
2026-04-16 23:59 -3.03691 -60.05511 265 ft 14 kts 265°
2026-04-17 00:00 -3.03691 -60.05606 264 ft 15 kts 271°
2026-04-17 00:00 -3.03690 -60.05719 265 ft 18 kts 270°
2026-04-17 00:00 -3.03690 -60.05848 265 ft 19 kts 269°
2026-04-17 00:00 -3.03690 -60.05989 264 ft 21 kts 271°
2026-04-17 00:01 -3.03695 -60.06109 264 ft 13 kts 255°
2026-04-17 00:01 -3.03749 -60.06169 265 ft 12 kts 204°
2026-04-17 00:01 -3.03827 -60.06168 266 ft 12 kts 157°
2026-04-17 00:01 -3.03857 -60.06024 266 ft 41 kts 93°
2026-04-17 00:02 -3.03847 -60.05579 264 ft 85 kts 92°
2026-04-17 00:02 -3.03889 -60.05149 333 ft 97 kts 90°
2026-04-17 00:02 -3.03874 -60.04463 600 ft 100 kts 87°
2026-04-17 00:02 -3.03858 -60.03713 785 ft 121 kts 88°
2026-04-17 00:03 -3.03907 -60.02754 975 ft 147 kts 94°
2026-04-17 00:03 -3.04004 -60.01754 1552 ft 141 kts 101°
2026-04-17 00:03 -3.04262 -60.00813 2078 ft 141 kts 104°
2026-04-17 00:03 -3.04522 -59.99862 2577 ft 142 kts 103°
2026-04-17 00:04 -3.04767 -59.98897 3048 ft 144 kts 102°
2026-04-17 00:04 -3.05010 -59.97920 3541 ft 145 kts 102°
2026-04-17 00:04 -3.05253 -59.96939 4018 ft 146 kts 102°
2026-04-17 00:04 -3.05500 -59.95935 4514 ft 147 kts 102°
2026-04-17 00:05 -3.05745 -59.94942 4989 ft 148 kts 102°
2026-04-17 00:05 -3.05989 -59.93954 5444 ft 149 kts 102°
2026-04-17 00:05 -3.06238 -59.92944 5898 ft 150 kts 103°
2026-04-17 00:05 -3.06489 -59.91925 6358 ft 152 kts 103°
2026-04-17 00:06 -3.06743 -59.90896 6793 ft 153 kts 103°
2026-04-17 00:06 -3.07002 -59.89846 7241 ft 154 kts 103°
2026-04-17 00:06 -3.07258 -59.88804 7679 ft 155 kts 103°
2026-04-17 00:06 -3.07517 -59.87755 8122 ft 156 kts 103°
2026-04-17 00:07 -3.07777 -59.86702 8564 ft 157 kts 103°
2026-04-17 00:07 -3.08038 -59.85641 9010 ft 158 kts 103°
2026-04-17 00:07 -3.08302 -59.84572 9451 ft 159 kts 103°
2026-04-17 00:07 -3.08567 -59.83494 9880 ft 160 kts 103°
2026-04-17 00:08 -3.08835 -59.82408 10263 ft 161 kts 103°
2026-04-17 00:08 -3.09105 -59.81312 10659 ft 163 kts 103°
2026-04-17 00:08 -3.09376 -59.80210 11049 ft 164 kts 104°
2026-04-17 00:08 -3.09651 -59.79095 11444 ft 166 kts 104°
2026-04-17 00:09 -3.09927 -59.77973 11822 ft 167 kts 104°
2026-04-17 00:09 -3.10206 -59.76842 12221 ft 168 kts 104°
2026-04-17 00:09 -3.10487 -59.75701 12612 ft 169 kts 104°
2026-04-17 00:09 -3.10770 -59.74552 13002 ft 171 kts 104°
2026-04-17 00:10 -3.11056 -59.73392 13392 ft 172 kts 104°
2026-04-17 00:10 -3.11344 -59.72224 13770 ft 174 kts 104°
2026-04-17 00:10 -3.11634 -59.71044 14107 ft 175 kts 104°
2026-04-17 00:10 -3.11926 -59.69858 14450 ft 176 kts 104°
2026-04-17 00:11 -3.12219 -59.68670 14793 ft 176 kts 104°
2026-04-17 00:11 -3.12513 -59.67474 15135 ft 177 kts 104°
2026-04-17 00:11 -3.12809 -59.66275 15477 ft 178 kts 104°
2026-04-17 00:11 -3.13106 -59.65068 15815 ft 179 kts 104°
2026-04-17 00:12 -3.13404 -59.63857 16156 ft 180 kts 104°
2026-04-17 00:12 -3.13703 -59.62641 16495 ft 181 kts 104°
2026-04-17 00:12 -3.14004 -59.61418 16831 ft 181 kts 105°
2026-04-17 00:12 -3.14306 -59.60191 17163 ft 182 kts 105°
2026-04-17 00:13 -3.14607 -59.58970 17477 ft 184 kts 105°
2026-04-17 00:13 -3.14918 -59.57705 17808 ft 185 kts 105°
2026-04-17 00:13 -3.15222 -59.56469 18134 ft 186 kts 105°
2026-04-17 00:13 -3.15532 -59.55209 18420 ft 187 kts 105°
2026-04-17 00:14 -3.15844 -59.53943 18692 ft 188 kts 105°
2026-04-17 00:14 -3.16157 -59.52672 18970 ft 189 kts 105°
2026-04-17 00:14 -3.16471 -59.51394 19247 ft 190 kts 105°
2026-04-17 00:14 -3.16787 -59.50111 19524 ft 190 kts 105°
2026-04-17 00:15 -3.17104 -59.48821 19804 ft 191 kts 105°
2026-04-17 00:15 -3.17423 -59.47526 20079 ft 192 kts 105°
2026-04-17 00:15 -3.17743 -59.46224 20355 ft 193 kts 105°
2026-04-17 00:15 -3.18066 -59.44910 20631 ft 194 kts 105°
2026-04-17 00:16 -3.18390 -59.43595 20908 ft 195 kts 105°
2026-04-17 00:16 -3.18715 -59.42272 21179 ft 196 kts 105°
2026-04-17 00:16 -3.19042 -59.40942 21461 ft 197 kts 105°
2026-04-17 00:16 -3.19370 -59.39607 21729 ft 198 kts 105°
2026-04-17 00:17 -3.19700 -59.38265 22000 ft 199 kts 105°
2026-04-17 00:17 -3.20037 -59.36894 22281 ft 200 kts 105°
2026-04-17 00:17 -3.20371 -59.35537 22554 ft 201 kts 105°
2026-04-17 00:17 -3.20706 -59.34175 22836 ft 202 kts 105°
2026-04-17 00:18 -3.21043 -59.32804 23115 ft 203 kts 105°
2026-04-17 00:18 -3.21381 -59.31426 23391 ft 204 kts 105°
2026-04-17 00:18 -3.21720 -59.30045 23641 ft 205 kts 105°
2026-04-17 00:18 -3.22061 -59.28656 23870 ft 206 kts 105°
2026-04-17 00:19 -3.22403 -59.27264 24098 ft 207 kts 105°
2026-04-17 00:19 -3.22747 -59.25865 24328 ft 207 kts 105°
2026-04-17 00:19 -3.23091 -59.24463 24558 ft 208 kts 105°
2026-04-17 00:19 -3.23438 -59.23054 24784 ft 208 kts 105°
2026-04-17 00:20 -3.23784 -59.21649 24831 ft 208 kts 105°
2026-04-17 00:20 -3.24131 -59.20241 24830 ft 209 kts 105°
2026-04-17 00:20 -3.24478 -59.18828 24830 ft 209 kts 105°
2026-04-17 00:20 -3.24826 -59.17412 24830 ft 210 kts 105°
2026-04-17 00:21 -3.25174 -59.15994 24830 ft 210 kts 105°
2026-04-17 00:21 -3.25522 -59.14578 24834 ft 210 kts 105°
2026-04-17 00:21 -3.25871 -59.13160 24834 ft 210 kts 105°
2026-04-17 00:21 -3.26215 -59.11759 24835 ft 210 kts 105°
2026-04-17 00:22 -3.26911 -59.08926 24833 ft 210 kts 105°
2026-04-17 00:22 -3.27258 -59.07510 24832 ft 210 kts 105°
2026-04-17 00:22 -3.27606 -59.06094 24834 ft 209 kts 105°
2026-04-17 00:23 -3.27953 -59.04681 24840 ft 209 kts 105°
2026-04-17 00:23 -3.28300 -59.03265 24843 ft 210 kts 105°
2026-04-17 00:23 -3.28725 -59.01873 24837 ft 209 kts 108°
2026-04-17 00:23 -3.29152 -59.00483 24837 ft 209 kts 108°
2026-04-17 00:24 -3.29582 -58.99095 24841 ft 209 kts 108°
2026-04-17 00:24 -3.30016 -58.97706 24841 ft 209 kts 108°
2026-04-17 00:24 -3.30450 -58.96320 24841 ft 209 kts 108°
2026-04-17 00:24 -3.30883 -58.94935 24842 ft 209 kts 108°
2026-04-17 00:25 -3.31319 -58.93537 24994 ft 210 kts 108°
2026-04-17 00:25 -3.31762 -58.92120 25065 ft 218 kts 108°
2026-04-17 00:25 -3.32225 -58.90642 25068 ft 227 kts 108°
2026-04-17 00:25 -3.32704 -58.89110 25070 ft 234 kts 108°
2026-04-17 00:26 -3.33197 -58.87533 25072 ft 240 kts 108°
2026-04-17 00:26 -3.33700 -58.85923 25073 ft 245 kts 108°
2026-04-17 00:26 -3.34213 -58.84280 25075 ft 249 kts 108°
2026-04-17 00:26 -3.34732 -58.82620 25075 ft 252 kts 108°
2026-04-17 00:27 -3.35257 -58.80941 25079 ft 254 kts 108°
2026-04-17 00:27 -3.35784 -58.79253 25079 ft 255 kts 108°
2026-04-17 00:27 -3.36315 -58.77553 25080 ft 256 kts 108°
2026-04-17 00:27 -3.36847 -58.75849 25080 ft 257 kts 108°
2026-04-17 00:28 -3.37381 -58.74138 25080 ft 258 kts 108°
2026-04-17 00:28 -3.37917 -58.72422 25081 ft 258 kts 108°
2026-04-17 00:28 -3.38452 -58.70707 25081 ft 259 kts 108°
2026-04-17 00:28 -3.38988 -58.68991 25081 ft 259 kts 108°
2026-04-17 00:29 -3.39526 -58.67269 25081 ft 259 kts 108°
2026-04-17 00:29 -3.40063 -58.65546 25080 ft 259 kts 108°
2026-04-17 00:29 -3.40601 -58.63823 25080 ft 259 kts 108°
2026-04-17 00:29 -3.41138 -58.62100 25081 ft 259 kts 108°
2026-04-17 00:30 -3.41677 -58.60375 25081 ft 260 kts 108°
2026-04-17 00:30 -3.42215 -58.58652 25084 ft 260 kts 108°
2026-04-17 00:30 -3.42753 -58.56927 25084 ft 260 kts 108°
2026-04-17 00:30 -3.43291 -58.55203 25084 ft 260 kts 108°
2026-04-17 00:31 -3.43829 -58.53478 25086 ft 260 kts 108°
2026-04-17 00:31 -3.44367 -58.51751 25087 ft 260 kts 108°
2026-04-17 00:31 -3.44907 -58.50023 25087 ft 260 kts 108°
2026-04-17 00:31 -3.45445 -58.48295 25086 ft 260 kts 108°
2026-04-17 00:32 -3.45984 -58.46569 25083 ft 260 kts 108°
2026-04-17 00:32 -3.46523 -58.44840 25083 ft 260 kts 108°
2026-04-17 00:32 -3.47061 -58.43113 25083 ft 260 kts 108°
2026-04-17 00:32 -3.47593 -58.41409 25083 ft 260 kts 108°
2026-04-17 00:33 -3.48130 -58.39687 25086 ft 260 kts 108°
2026-04-17 00:33 -3.48670 -58.37955 25085 ft 260 kts 108°
2026-04-17 00:33 -3.49208 -58.36229 25086 ft 260 kts 108°
2026-04-17 00:33 -3.49747 -58.34499 25086 ft 260 kts 108°
2026-04-17 00:34 -3.50286 -58.32771 25086 ft 260 kts 108°
2026-04-17 00:34 -3.50822 -58.31051 25086 ft 260 kts 108°
2026-04-17 00:34 -3.51362 -58.29320 25086 ft 260 kts 108°
2026-04-17 00:34 -3.51900 -58.27592 25087 ft 260 kts 108°
2026-04-17 00:35 -3.52439 -58.25863 25086 ft 260 kts 108°
2026-04-17 00:35 -3.52977 -58.24135 25086 ft 260 kts 108°
2026-04-17 00:35 -3.53515 -58.22410 25086 ft 260 kts 108°
2026-04-17 00:35 -3.54054 -58.20680 25086 ft 260 kts 108°
2026-04-17 00:36 -3.54591 -58.18954 25085 ft 260 kts 108°
2026-04-17 00:36 -3.55132 -58.17219 25085 ft 261 kts 108°
2026-04-17 00:36 -3.55672 -58.15485 25085 ft 261 kts 108°
2026-04-17 00:36 -3.56212 -58.13750 25085 ft 261 kts 108°
2026-04-17 00:37 -3.56752 -58.12016 25088 ft 261 kts 108°
2026-04-17 00:37 -3.57294 -58.10278 25088 ft 261 kts 108°
2026-04-17 00:37 -3.57834 -58.08544 25088 ft 261 kts 108°
2026-04-17 00:37 -3.58374 -58.06807 25088 ft 261 kts 108°
2026-04-17 00:38 -3.58915 -58.05071 25087 ft 261 kts 108°
2026-04-17 00:38 -3.59455 -58.03335 25090 ft 261 kts 108°
2026-04-17 00:38 -3.59995 -58.01601 25090 ft 261 kts 108°
2026-04-17 00:38 -3.60536 -57.99865 25090 ft 261 kts 108°
2026-04-17 00:39 -3.61075 -57.98132 25092 ft 261 kts 108°
2026-04-17 00:39 -3.61615 -57.96396 25092 ft 261 kts 108°
2026-04-17 00:39 -3.62154 -57.94663 25092 ft 261 kts 108°
2026-04-17 00:39 -3.62694 -57.92931 25093 ft 261 kts 108°
2026-04-17 00:40 -3.63233 -57.91199 25088 ft 261 kts 108°
2026-04-17 00:40 -3.63772 -57.89466 25088 ft 261 kts 108°
2026-04-17 00:40 -3.64310 -57.87735 25088 ft 261 kts 108°
2026-04-17 00:40 -3.64850 -57.86000 25089 ft 261 kts 108°
2026-04-17 00:41 -3.65389 -57.84269 25088 ft 261 kts 108°
2026-04-17 00:41 -3.65927 -57.82537 25088 ft 261 kts 108°
2026-04-17 00:41 -3.66466 -57.80804 25088 ft 261 kts 108°
2026-04-17 00:41 -3.67005 -57.79073 25088 ft 261 kts 108°
2026-04-17 00:42 -3.67543 -57.77341 25088 ft 260 kts 108°
2026-04-17 00:42 -3.68081 -57.75611 25088 ft 260 kts 108°
2026-04-17 00:42 -3.68619 -57.73882 25088 ft 260 kts 108°
2026-04-17 00:42 -3.69157 -57.72150 25088 ft 260 kts 108°
2026-04-17 00:43 -3.69695 -57.70420 25091 ft 260 kts 108°
2026-04-17 00:43 -3.70233 -57.68691 25091 ft 260 kts 108°
2026-04-17 00:43 -3.70771 -57.66960 25092 ft 260 kts 108°
2026-04-17 00:43 -3.71308 -57.65231 25091 ft 260 kts 108°
2026-04-17 00:44 -3.71664 -57.64085 25090 ft 261 kts 108°
2026-04-17 00:44 -3.72203 -57.62351 25090 ft 261 kts 108°
2026-04-17 00:44 -3.72743 -57.60613 25090 ft 261 kts 108°
2026-04-17 00:44 -3.73283 -57.58875 25090 ft 262 kts 108°
2026-04-17 00:45 -3.73824 -57.57135 25090 ft 262 kts 108°
2026-04-17 00:45 -3.74373 -57.55368 25090 ft 262 kts 108°
2026-04-17 00:45 -3.74915 -57.53625 25091 ft 263 kts 108°
2026-04-17 00:45 -3.75458 -57.51874 25090 ft 263 kts 108°
2026-04-17 00:46 -3.76002 -57.50125 25091 ft 263 kts 108°
2026-04-17 00:46 -3.76545 -57.48374 25091 ft 263 kts 108°
2026-04-17 00:46 -3.77089 -57.46623 25092 ft 263 kts 108°
2026-04-17 00:46 -3.77626 -57.44896 25092 ft 263 kts 108°
2026-04-17 00:47 -3.78170 -57.43143 25092 ft 263 kts 108°
2026-04-17 00:47 -3.78713 -57.41393 25094 ft 263 kts 108°
2026-04-17 00:47 -3.79257 -57.39641 25094 ft 263 kts 108°
2026-04-17 00:47 -3.79801 -57.37889 25094 ft 263 kts 108°
2026-04-17 00:48 -3.80352 -57.36114 25094 ft 264 kts 107°
2026-04-17 00:48 -3.80897 -57.34359 25091 ft 264 kts 107°
2026-04-17 00:48 -3.81441 -57.32605 25091 ft 264 kts 107°
2026-04-17 00:48 -3.81986 -57.30851 25091 ft 264 kts 107°
2026-04-17 00:49 -3.82531 -57.29094 25023 ft 266 kts 107°
2026-04-17 00:49 -3.83084 -57.27318 24687 ft 267 kts 108°
2026-04-17 00:49 -3.83635 -57.25548 24356 ft 266 kts 107°
2026-04-17 00:49 -3.84182 -57.23784 24030 ft 265 kts 107°
2026-04-17 00:50 -3.84726 -57.22027 23707 ft 263 kts 107°
2026-04-17 00:50 -3.85266 -57.20281 23364 ft 263 kts 107°
2026-04-17 00:50 -3.85807 -57.18534 22976 ft 262 kts 107°
2026-04-17 00:50 -3.86346 -57.16797 22587 ft 261 kts 107°
2026-04-17 00:51 -3.86884 -57.15064 22218 ft 260 kts 107°
2026-04-17 00:51 -3.87420 -57.13337 21849 ft 259 kts 107°
2026-04-17 00:51 -3.87953 -57.11616 21482 ft 258 kts 107°
2026-04-17 00:51 -3.88477 -57.09926 21126 ft 257 kts 107°
2026-04-17 00:52 -3.89014 -57.08194 20762 ft 257 kts 107°
2026-04-17 00:52 -3.89536 -57.06511 20414 ft 256 kts 107°
2026-04-17 00:52 -3.90062 -57.04815 20061 ft 255 kts 107°
2026-04-17 00:52 -3.90586 -57.03123 19716 ft 254 kts 107°
2026-04-17 00:53 -3.91109 -57.01436 19373 ft 253 kts 107°
2026-04-17 00:53 -3.91629 -56.99758 19036 ft 252 kts 107°
2026-04-17 00:53 -3.92148 -56.98084 18701 ft 251 kts 107°
2026-04-17 00:53 -3.92665 -56.96415 18370 ft 250 kts 107°
2026-04-17 00:54 -3.93180 -56.94754 18018 ft 249 kts 107°
2026-04-17 00:54 -3.93692 -56.93100 17637 ft 248 kts 107°
2026-04-17 00:54 -3.94203 -56.91451 17257 ft 247 kts 107°
2026-04-17 00:54 -3.94712 -56.89809 16886 ft 246 kts 107°
2026-04-17 00:55 -3.95218 -56.88175 16517 ft 245 kts 107°
2026-04-17 00:55 -3.95723 -56.86546 16153 ft 244 kts 107°
2026-04-17 00:55 -3.96225 -56.84925 15794 ft 243 kts 107°
2026-04-17 00:55 -3.96725 -56.83310 15438 ft 242 kts 106°
2026-04-17 00:56 -3.97221 -56.81708 15092 ft 241 kts 106°
2026-04-17 00:56 -3.97718 -56.80102 14740 ft 240 kts 106°
2026-04-17 00:56 -3.98213 -56.78504 14396 ft 240 kts 106°
2026-04-17 00:56 -3.98707 -56.76907 14057 ft 239 kts 106°
2026-04-17 00:57 -3.99200 -56.75317 13716 ft 239 kts 106°
2026-04-17 00:57 -3.99690 -56.73733 13338 ft 238 kts 106°
2026-04-17 00:57 -4.00180 -56.72150 12959 ft 237 kts 106°
2026-04-17 00:57 -4.00668 -56.70574 12586 ft 237 kts 106°
2026-04-17 00:58 -4.01154 -56.69003 12211 ft 236 kts 106°
2026-04-17 00:58 -4.01639 -56.67435 11850 ft 235 kts 106°
2026-04-17 00:58 -4.02124 -56.65869 11489 ft 235 kts 106°
2026-04-17 00:58 -4.02606 -56.64310 11133 ft 234 kts 106°
2026-04-17 00:59 -4.03088 -56.62753 10783 ft 234 kts 106°
2026-04-17 00:59 -4.03566 -56.61210 10434 ft 229 kts 106°
2026-04-17 00:59 -4.04032 -56.59705 10095 ft 224 kts 106°
2026-04-17 00:59 -4.04490 -56.58225 9739 ft 221 kts 106°
2026-04-17 01:00 -4.04941 -56.56764 9356 ft 218 kts 106°
2026-04-17 01:00 -4.05387 -56.55321 8982 ft 215 kts 106°
2026-04-17 01:00 -4.05828 -56.53896 8612 ft 213 kts 106°
2026-04-17 01:00 -4.06265 -56.52483 8241 ft 211 kts 106°
2026-04-17 01:01 -4.06697 -56.51084 7886 ft 209 kts 106°
2026-04-17 01:01 -4.07126 -56.49697 7520 ft 208 kts 106°
2026-04-17 01:01 -4.07553 -56.48315 7170 ft 207 kts 106°
2026-04-17 01:01 -4.07978 -56.46941 6819 ft 206 kts 106°
2026-04-17 01:02 -4.08400 -56.45577 6475 ft 204 kts 106°
2026-04-17 01:02 -4.08827 -56.44225 6117 ft 203 kts 106°
2026-04-17 01:02 -4.09261 -56.42878 5749 ft 202 kts 106°
2026-04-17 01:02 -4.09693 -56.41541 5389 ft 201 kts 106°
2026-04-17 01:03 -4.10124 -56.40210 5024 ft 200 kts 107°
2026-04-17 01:03 -4.10554 -56.38887 4668 ft 199 kts 107°
2026-04-17 01:03 -4.10982 -56.37570 4299 ft 198 kts 106°
2026-04-17 01:03 -4.11411 -56.36259 3934 ft 198 kts 106°
2026-04-17 01:04 -4.11847 -56.34952 3568 ft 198 kts 106°
2026-04-17 01:04 -4.12289 -56.33654 3311 ft 192 kts 106°
2026-04-17 01:04 -4.12706 -56.32456 3340 ft 174 kts 106°
2026-04-17 01:04 -4.13078 -56.31403 3596 ft 154 kts 106°
2026-04-17 01:05 -4.13424 -56.30410 3893 ft 149 kts 106°
2026-04-17 01:05 -4.13760 -56.29434 4097 ft 151 kts 106°
2026-04-17 01:05 -4.14114 -56.28390 4095 ft 165 kts 106°
2026-04-17 01:05 -4.14491 -56.27267 4100 ft 175 kts 106°
2026-04-17 01:06 -4.14959 -56.26113 4098 ft 185 kts 121°
2026-04-17 01:06 -4.15834 -56.25141 4102 ft 191 kts 131°
2026-04-17 01:06 -4.16800 -56.24198 4105 ft 196 kts 132°
2026-04-17 01:06 -4.17789 -56.23237 4021 ft 202 kts 132°
2026-04-17 01:07 -4.18792 -56.22264 3742 ft 199 kts 132°
2026-04-17 01:07 -4.19785 -56.21306 3483 ft 197 kts 132°
2026-04-17 01:07 -4.20769 -56.20362 3227 ft 196 kts 132°
2026-04-17 01:07 -4.21744 -56.19432 3104 ft 188 kts 132°
2026-04-17 01:08 -4.22663 -56.18563 3095 ft 176 kts 132°
2026-04-17 01:08 -4.23519 -56.17761 3090 ft 161 kts 132°
2026-04-17 01:08 -4.24311 -56.17030 3090 ft 149 kts 132°
2026-04-17 01:08 -4.25060 -56.16344 3089 ft 144 kts 132°
2026-04-17 01:09 -4.25786 -56.15684 3092 ft 138 kts 132°
2026-04-17 01:09 -4.26494 -56.15044 3096 ft 137 kts 132°
2026-04-17 01:09 -4.27242 -56.14358 3106 ft 160 kts 132°
2026-04-17 01:09 -4.28112 -56.13537 3108 ft 177 kts 132°
2026-04-17 01:10 -4.29003 -56.12696 2996 ft 178 kts 133°
2026-04-17 01:10 -4.29914 -56.11832 2753 ft 178 kts 133°
2026-04-17 01:10 -4.30787 -56.11010 2505 ft 168 kts 132°
2026-04-17 01:10 -4.31583 -56.10197 2264 ft 159 kts 122°
2026-04-17 01:11 -4.31970 -56.09223 2106 ft 143 kts 92°
2026-04-17 01:11 -4.31897 -56.08290 2105 ft 129 kts 70°
2026-04-17 01:11 -4.31533 -56.07499 2069 ft 125 kts 64°
2026-04-17 01:11 -4.31142 -56.06711 1948 ft 128 kts 64°
2026-04-17 01:12 -4.30747 -56.05908 1828 ft 128 kts 64°
2026-04-17 01:12 -4.30361 -56.05134 1718 ft 118 kts 64°
2026-04-17 01:12 -4.29940 -56.04468 1593 ft 110 kts 50°
2026-04-17 01:12 -4.29366 -56.03987 1472 ft 107 kts 36°
2026-04-17 01:13 -4.28765 -56.03603 1327 ft 99 kts 31°
2026-04-17 01:13 -4.28179 -56.03249 1143 ft 97 kts 34°
2026-04-17 01:13 -4.27643 -56.02847 982 ft 96 kts 42°
2026-04-17 01:13 -4.27173 -56.02387 839 ft 93 kts 42°
2026-04-17 01:14 -4.26666 -56.02003 707 ft 95 kts 35°
2026-04-17 01:14 -4.26131 -56.01588 530 ft 98 kts 38°
2026-04-17 01:14 -4.25622 -56.01181 429 ft 88 kts 38°
2026-04-17 01:14 -4.25154 -56.00805 305 ft 86 kts 37°
2026-04-17 01:15 -4.24667 -56.00419 108 ft 89 kts 37°
2026-04-17 01:15 -4.24217 -56.00077 104 ft 74 kts 41°
2026-04-17 01:15 -4.23898 -55.99833 103 ft 25 kts 34°
2026-04-17 01:15 -4.23839 -55.99786 103 ft 8 kts 233°
2026-04-17 01:16 -4.23890 -55.99821 103 ft 10 kts 223°
2026-04-17 01:16 -4.23890 -55.99870 101 ft 0 kts 306°
2026-04-17 01:16 -4.23885 -55.99877 101 ft 5 kts 306°
2026-04-17 01:16 -4.23871 -55.99941 100 ft 13 kts 266°
2026-04-17 01:17 -4.23915 -56.00040 100 ft 19 kts 217°
2026-04-17 01:17 -4.24033 -56.00132 100 ft 24 kts 218°
2026-04-17 01:17 -4.24174 -56.00242 100 ft 27 kts 216°
2026-04-17 01:17 -4.24330 -56.00362 100 ft 28 kts 218°
2026-04-17 01:18 -4.24411 -56.00428 100 ft 13 kts 221°
2026-04-17 01:18 -4.24465 -56.00477 100 ft 8 kts 253°
2026-04-17 01:18 -4.24458 -56.00496 100 ft 0 kts 316°